星链-34720(STARLINK-34720)

导读 | 豆包AI

STARLINK-34720是美国太空探索技术公司星链星座的一颗卫星,于2025年11月11日发射升空,归属STARLINK项目。星链星座旨在构建全球卫星互联网系统,为全球多地提供高速低延迟互联网服务,该卫星入轨后将进一步扩充星链星座规模,提升星座整体服务覆盖能力与网络稳定性。

基本信息
目录编号:
66449
目录名称:
STARLINK-34720
国际标识:
2025-259AD
轨道中心:
EARTH
卫星名称:
星链-34720
卫星全名:
星链-34720(STARLINK-34720)
卫星状态:
在轨 (已飞行123 天)
发射日期:
2025-11-11 UTC
国别 :
美国 (US)
星等 :
--
轨道信息
数据来源 国际轨道数据 AOE轨道数据
星历时间 2026-03-13T20:27:36+0800
22小时前
查看轨道信息
2026-03-14T08:00:00+0800
10小时前
查看轨道信息
半长轴 6861.256km 6861.138km
偏心率 0.0001416 0.0001361
轨道倾角 42.998° 42.997°
近地点辐角 286.536° 280.104°
升交点赤经 253.000° 250.292°
平近点角 73.534° 207.293°
近地点 482.147km 482.067km
远地点 484.091km 483.935km
周期 94.268分钟 94.266分钟
每日圈数 15.275567 15.275962
详细信息
固有亮度:
5
最大亮度:
2.5
卫星平台:
Starlink V1.0
覆盖范围:
全球
运营商:
太空探索技术公司
运营商所在国:
美国
制造商(研发单位):
太空探索技术公司
制造商所在国:
美国
使用方式:
暂无
卫星简介
Starlink 计划是 SpaceX 推出的全球卫星互联网项目,通过发射低轨道卫星,为全球尤其是偏远地区提供高速、低延迟的互联网服务。自 2019 年起,Starlink 已部署数千颗卫星,旨在缩小全球数字鸿沟,推动互联网普及。该项目还为军事、航空等行业提供通信支持,带来广泛经济效益。
2D轨道图
3D轨道图
轨道高度分析图
轨道倾角分析图
轨道综合分析图
查看轨道综合分析图